| time (UTC) | temp F | wind direction | speed MPH | gust MPH | rain 1hr in | rain 24hr in | rain mn in | humidity % | barometer mb |
| 20260904190041 | 63 | 73 | 0.0 | 2.0 | 0.00 | 0.01 | 0.00 | 63 | 1010.3 |
| 20260904184536 | 63 | 1 | 0.0 | 1.0 | 0.00 | 0.01 | 0.00 | 60 | 1010.4 |
| 20260904183031 | 62 | 58 | 0.0 | 1.0 | 0.00 | 0.01 | 0.00 | 57 | 1010.3 |
| 20260904181533 | 61 | 58 | 0.0 | 0.0 | 0.00 | 0.01 | 0.00 | 56 | 1010.2 |
| 20260904180023 | 61 | 59 | 0.0 | 1.0 | 0.00 | 0.01 | 0.00 | 58 | 1010.4 |
| 20260904174519 | 60 | 81 | 0.0 | 1.0 | 0.00 | 0.01 | 0.00 | 45 | 1010.3 |
| 20260904173033 | 59 | 82 | 0.0 | 0.0 | 0.00 | 0.01 | 0.00 | 32 | 1010.3 |
| 20260904171512 | 58 | 82 | 0.0 | 0.0 | 0.00 | 0.01 | 0.00 | 29 | 1010.2 |
| 20260904170007 | 58 | 82 | 0.0 | 0.0 | 0.00 | 0.01 | 0.00 | 21 | 1010.2 |
| 20260904164600 | 57 | 81 | 0.0 | 0.0 | 0.00 | 0.01 | 0.00 | 12 | 1010.3 |
| 20260904164501 | 57 | 81 | 0.0 | 0.0 | 0.00 | 0.01 | 0.00 | 10 | 1010.2 |
| 20260904163056 | 57 | 81 | 0.0 | 0.0 | 0.00 | 0.01 | 0.00 | 1 | 1010.3 |
| 20260904161600 | 57 | 81 | 0.0 | 0.0 | 0.00 | 0.01 | 0.00 | 1 | 1010.0 |
| 20260904160057 | 55 | 81 | 0.0 | 0.0 | 0.00 | 0.01 | 0.00 | 1 | 1009.9 |
| 20260904154543 | 53 | 80 | 0.0 | 0.0 | 0.00 | 0.01 | 0.00 | 1 | 1009.9 |
| 20260904153039 | 53 | 80 | 0.0 | 0.0 | 0.00 | 0.01 | 0.00 | 1 | 1009.9 |
| 20260904151539 | 52 | 79 | 0.0 | 0.0 | 0.00 | 0.01 | 0.00 | 1 | 1009.8 |
| 20260904150035 | 51 | 79 | 0.0 | 0.0 | 0.00 | 0.01 | 0.00 | 1 | 1009.7 |
| 20260904144525 | 51 | 79 | 0.0 | 0.0 | 0.00 | 0.01 | 0.00 | 1 | 1009.8 |
| 20260904143022 | 0 | 0.0 | 0.0 | 0.00 | 0.01 | 0.00 | 1009.6 | ||
| 20260904141517 | 0 | 0.0 | 0.0 | 0.00 | 0.01 | 0.00 | 1009.4 | ||
| 20260904140013 | 0 | 0.0 | 0.0 | 0.00 | 0.01 | 0.00 | 1009.1 | ||
| 20260904134508 | 0 | 0.0 | 0.0 | 0.00 | 0.01 | 0.00 | 1008.8 | ||
| 20260904133005 | 0 | 0.0 | 0.0 | 0.00 | 0.01 | 0.00 | 1008.6 | ||
| 20260904131603 | 0 | 0.0 | 0.0 | 0.00 | 0.01 | 0.00 | 1008.6 | ||
| 20260904130058 | 0 | 0.0 | 0.0 | 0.00 | 0.01 | 0.00 | 1008.4 | ||
| 20260904124602 | 0 | 0.0 | 0.0 | 0.00 | 0.01 | 0.00 | 1008.3 | ||
| 20260904123047 | 0 | 0.0 | 0.0 | 0.00 | 0.01 | 0.00 | 1008.3 | ||
| 20260904121542 | 0 | 0.0 | 0.0 | 0.00 | 0.01 | 0.00 | 1008.2 | ||
| 20260904120037 | 0 | 0.0 | 0.0 | 0.00 | 0.01 | 0.00 | 1008.3 | ||
| 20260904114533 | 48 | 79 | 0.0 | 0.0 | 0.00 | 0.01 | 0.00 | 1 | 1008.1 |
| 20260904113029 | 49 | 79 | 0.0 | 0.0 | 0.00 | 0.01 | 0.00 | 1 | 1007.9 |
| 20260904111524 | 49 | 79 | 0.0 | 0.0 | 0.00 | 0.01 | 0.00 | 1 | 1007.8 |
| 20260904110020 | 49 | 79 | 0.0 | 0.0 | 0.00 | 0.01 | 0.00 | 1 | 1007.7 |
| 20260904104517 | 49 | 79 | 0.0 | 0.0 | 0.00 | 0.01 | 0.00 | 1 | 1007.7 |
| 20260904103012 | 49 | 79 | 0.0 | 0.0 | 0.00 | 0.01 | 0.00 | 1 | 1007.6 |
| 20260904101508 | 49 | 79 | 0.0 | 0.0 | 0.00 | 0.01 | 0.00 | 1 | 1007.5 |
| 20260904100121 | 49 | 79 | 0.0 | 0.0 | 0.00 | 0.01 | 0.00 | 1 | 1007.5 |
| 20260904094554 | 49 | 79 | 0.0 | 0.0 | 0.00 | 0.01 | 0.00 | 1 | 1007.5 |
| 20260904093054 | 49 | 79 | 0.0 | 0.0 | 0.00 | 0.01 | 0.00 | 1 | 1007.6 |
| 20260904091553 | 49 | 79 | 0.0 | 0.0 | 0.00 | 0.01 | 0.00 | 1 | 1007.5 |
| 20260904090041 | 49 | 79 | 0.0 | 0.0 | 0.00 | 0.01 | 0.00 | 1 | 1007.6 |
| 20260904084537 | 49 | 79 | 0.0 | 0.0 | 0.00 | 0.01 | 0.00 | 1 | 1007.5 |
| 20260904083036 | 50 | 79 | 0.0 | 0.0 | 0.00 | 0.01 | 0.00 | 1 | 1007.6 |
| 20260904081528 | 50 | 79 | 0.0 | 0.0 | 0.00 | 0.01 | 0.00 | 1 | 1007.7 |
| 20260904080023 | 50 | 79 | 0.0 | 0.0 | 0.00 | 0.01 | 0.00 | 1 | 1007.8 |
| 20260904074530 | 50 | 79 | 0.0 | 0.0 | 0.00 | 0.01 | 0.00 | 1 | 1007.8 |
| 20260904073019 | 50 | 79 | 0.0 | 0.0 | 0.00 | 0.01 | 0.00 | 1 | 1007.7 |
| 20260904071511 | 50 | 79 | 0.0 | 0.0 | 0.00 | 0.01 | 0.00 | 1 | 1007.6 |
| 20260904070008 | 50 | 79 | 0.0 | 0.0 | 0.00 | 0.01 | 0.00 | 1 | 1007.6 |
| 20260904064501 | 50 | 79 | 0.0 | 0.0 | 0.00 | 0.01 | 0.01 | 1 | 1007.5 |
| 20260904063059 | 51 | 79 | 0.0 | 0.0 | 0.00 | 0.01 | 0.01 | 1 | 1007.5 |
| 20260904061553 | 51 | 79 | 0.0 | 0.0 | 0.00 | 0.01 | 0.01 | 1 | 1007.4 |
| 20260904060049 | 52 | 79 | 0.0 | 0.0 | 0.00 | 0.01 | 0.01 | 1 | 1007.2 |
| 20260904054546 | 52 | 79 | 0.0 | 0.0 | 0.00 | 0.01 | 0.01 | 1 | 1007.2 |
| 20260904053050 | 52 | 79 | 0.0 | 0.0 | 0.00 | 0.01 | 0.01 | 1 | 1007.1 |
| 20260904051536 | 53 | 79 | 0.0 | 0.0 | 0.00 | 0.01 | 0.01 | 1 | 1007.3 |
| 20260904050033 | 53 | 79 | 0.0 | 0.0 | 0.00 | 0.01 | 0.01 | 1 | 1007.2 |
| 20260904044527 | 53 | 79 | 0.0 | 0.0 | 0.00 | 0.01 | 0.01 | 1 | 1007.3 |
| 20260904043022 | 53 | 79 | 0.0 | 0.0 | 0.00 | 0.01 | 0.01 | 1 | 1007.2 |
| 20260904041524 | 54 | 79 | 0.0 | 0.0 | 0.00 | 0.01 | 0.01 | 1 | 1007.3 |
| 20260904040013 | 54 | 79 | 0.0 | 0.0 | 0.00 | 0.01 | 0.01 | 1 | 1007.3 |
| 20260904034508 | 54 | 79 | 0.0 | 0.0 | 0.00 | 0.01 | 0.01 | 1 | 1007.2 |
| 20260904033006 | 55 | 79 | 0.0 | 0.0 | 0.00 | 0.01 | 0.01 | 1 | 1007.0 |
| 20260904031613 | 55 | 79 | 0.0 | 0.0 | 0.00 | 0.01 | 0.01 | 1 | 1006.9 |
| 20260904030055 | 55 | 80 | 0.0 | 0.0 | 0.00 | 0.01 | 0.01 | 1 | 1006.8 |
| 20260904024551 | 56 | 80 | 0.0 | 0.0 | 0.00 | 0.01 | 0.01 | 2 | 1006.6 |
| 20260904023048 | 56 | 80 | 0.0 | 0.0 | 0.00 | 0.01 | 0.01 | 1 | 1006.6 |
| 20260904021550 | 56 | 80 | 0.0 | 0.0 | 0.00 | 0.01 | 0.01 | 8 | 1006.5 |
| 20260904020042 | 56 | 80 | 0.0 | 0.0 | 0.00 | 0.01 | 0.01 | 14 | 1006.4 |
| 20260904014534 | 57 | 80 | 0.0 | 0.0 | 0.00 | 0.01 | 0.01 | 19 | 1006.2 |
| 20260904013030 | 57 | 80 | 0.0 | 1.0 | 0.00 | 0.01 | 0.01 | 22 | 1006.2 |
| 20260904011525 | 57 | 226 | 0.0 | 2.0 | 0.00 | 0.01 | 0.01 | 13 | 1006.2 |
| 20260904010022 | 57 | 205 | 0.0 | 0.0 | 0.00 | 0.01 | 0.01 | 14 | 1006.1 |
| 20260904004517 | 58 | 205 | 0.0 | 0.0 | 0.00 | 0.01 | 0.01 | 20 | 1006.0 |
| 20260904003014 | 59 | 210 | 0.0 | 0.0 | 0.00 | 0.01 | 0.01 | 31 | 1005.9 |
| 20260904001508 | 61 | 210 | 0.0 | 1.0 | 0.00 | 0.01 | 0.01 | 46 | 1005.8 |
| 20260904000003 | 63 | 210 | 0.0 | 1.0 | 0.01 | 0.01 | 0.01 | 58 | 1005.7 |
| 20260903234600 | 63 | 210 | 0.0 | 0.0 | 0.01 | 0.01 | 0.01 | 48 | 1005.7 |
| 20260903233055 | 61 | 210 | 0.0 | 2.0 | 0.01 | 0.01 | 0.01 | 49 | 1005.8 |
| 20260903231556 | 61 | 279 | 0.0 | 0.0 | 0.01 | 0.01 | 0.01 | 1 | 1005.9 |
| 20260903230050 | 60 | 279 | 0.0 | 0.0 | 0.00 | 0.00 | 0.00 | 6 | 1006.1 |
| 20260903224546 | 60 | 279 | 0.0 | 0.0 | 0.00 | 0.00 | 0.00 | 3 | 1006.2 |
| 20260903223039 | 60 | 279 | 0.0 | 1.0 | 0.00 | 0.00 | 0.00 | 29 | 1006.2 |
| 20260903221546 | 60 | 274 | 0.0 | 0.0 | 0.00 | 0.00 | 0.00 | 29 | 1006.2 |
| 20260903220031 | 60 | 274 | 0.0 | 0.0 | 0.00 | 0.00 | 0.00 | 21 | 1006.1 |
| 20260903214526 | 60 | 274 | 0.0 | 0.0 | 0.00 | 0.00 | 0.00 | 22 | 1006.2 |
| 20260903213023 | 60 | 274 | 0.0 | 0.0 | 0.00 | 0.00 | 0.00 | 38 | 1006.2 |
| 20260903211517 | 61 | 274 | 0.0 | 0.0 | 0.00 | 0.00 | 0.00 | 48 | 1006.0 |
| 20260903210015 | 60 | 248 | 0.0 | 0.0 | 0.00 | 0.00 | 0.00 | 51 | 1005.9 |
| 20260903204508 | 59 | 96 | 0.0 | 1.0 | 0.00 | 0.00 | 0.00 | 49 | 1005.9 |
| 20260903203005 | 59 | 129 | 0.0 | 1.0 | 0.00 | 0.00 | 0.00 | 46 | 1005.7 |
| 20260903201600 | 60 | 129 | 0.0 | 1.0 | 0.00 | 0.00 | 0.00 | 52 | 1005.6 |
| 20260903200055 | 60 | 79 | 0.0 | 1.0 | 0.00 | 0.00 | 0.00 | 56 | 1005.6 |
| 20260903194551 | 61 | 314 | 0.0 | 1.0 | 0.00 | 0.00 | 0.00 | 57 | 1005.6 |
| 20260903193048 | 62 | 95 | 0.0 | 2.0 | 0.00 | 0.00 | 0.00 | 57 | 1005.5 |
| 20260903191542 | 63 | 262 | 0.0 | 1.0 | 0.00 | 0.00 | 0.00 | 59 | 1005.3 |